KE9LZ Weather Reports


time (UTC)temp
C
wind
direction
speed
KPH
gust
KPH
rain 1hr
cm
rain 24hr
cm
rain mn
cm
humidity
%
barometer
mb
20260509123003 11 195 3.2 9.7 0.00 0.00 0.00 56 1005.0
20260509122003 11 191 4.8 8.0 0.00 0.00 0.00 56 1005.1
20260509121003 11 144 4.8 8.0 0.00 0.00 0.00 56 1004.4
20260509120003 11 79 4.8 8.0 0.00 0.00 0.00 56 1003.9
20260509115003 11 225 3.2 9.7 0.00 0.00 0.00 56 1004.2
20260509114003 11 240 3.2 12.9 0.00 0.00 0.00 56 1003.9
20260509113003 11 276 6.4 14.5 0.00 0.00 0.00 56 1003.8
20260509112003 11 180 3.2 9.7 0.00 0.00 0.00 58 1003.7
20260509111003 10 352 4.8 11.3 0.00 0.00 0.00 59 1003.3
20260509110003 10 18 3.2 9.7 0.00 0.00 0.00 64 1003.3
20260509105003 10 187 4.8 11.3 0.00 0.00 0.00 65 1003.1
20260509104003 10 146 4.8 16.1 0.00 0.00 0.00 68 1002.9
20260509103003 10 217 6.4 12.9 0.00 0.00 0.00 70 1002.7
20260509102003 10 173 6.4 9.7 0.00 0.00 0.00 72 1002.6
20260509101004 10 187 3.2 12.9 0.00 0.00 0.00 74 1002.7
20260509100003 10 180 4.8 12.9 0.00 0.00 0.00 73 1002.8
20260509095003 10 206 6.4 14.5 0.00 0.00 0.00 72 1002.9
20260509094003 10 193 8.0 12.9 0.00 0.00 0.00 72 1002.2
20260509092003 11 151 6.4 11.3 0.00 0.00 0.00 70 1002.4
20260509091003 11 185 6.4 9.7 0.00 0.00 0.00 69 1002.6
20260509085003 11 174 8.0 11.3 0.00 0.00 0.00 68 1002.6
20260509084003 10 158 3.2 8.0 0.00 0.00 0.00 68 1002.7
20260509083003 10 124 4.8 8.0 0.00 0.00 0.00 68 1002.7
20260509082003 10 110 4.8 4.8 0.00 0.00 0.00 68 1002.9
20260509081004 10 104 4.8 8.0 0.00 0.00 0.00 67 1003.0
20260509080003 10 119 4.8 9.7 0.00 0.00 0.00 66 1002.9
20260509075003 10 99 4.8 8.0 0.00 0.00 0.00 66 1003.1
20260509074004 10 117 3.2 8.0 0.00 0.00 0.00 65 1003.3
20260509072003 11 123 4.8 9.7 0.00 0.00 0.00 63 1003.5
20260509071003 11 138 4.8 9.7 0.00 0.00 0.00 62 1003.7
20260509063004 11 126 8.0 9.7 0.00 0.00 0.00 56 1004.1
20260509062003 12 140 8.0 11.3 0.00 0.00 0.00 55 1004.4
20260509061003 12 116 8.0 11.3 0.00 0.00 0.00 55 1004.5
20260509060003 12 108 6.4 11.3 0.00 0.00 0.00 54 1004.8
20260509055003 12 115 6.4 11.3 0.00 0.00 0.00 53 1005.1
20260509054003 12 114 6.4 12.9 0.00 0.00 0.00 51 1005.3
20260509053004 12 131 6.4 14.5 0.00 0.00 0.00 51 1005.2
20260509052003 12 88 4.8 22.5 0.00 0.00 0.00 51 1005.3
20260509051003 12 87 6.4 8.0 0.00 0.00 0.00 53 1005.4
20260509050003 12 54 3.2 9.7 0.00 0.00 0.00 51 1005.6
20260509045004 12 139 4.8 11.3 0.00 0.00 0.00 52 1005.6
20260509044003 12 112 6.4 9.7 0.00 0.00 0.00 56 1005.8
20260509043003 12 212 6.4 11.3 0.00 0.00 0.00 54 1005.7
20260509041003 12 61 4.8 8.0 0.00 0.00 0.00 50 1006.1
20260509040004 13 105 1.6 9.7 0.00 0.00 0.00 49 1006.4
20260509034004 12 199 3.2 9.7 0.00 0.00 0.00 47 1006.5
20260509033003 12 98 3.2 8.0 0.00 0.00 0.00 47 1006.6
20260509032003 12 119 4.8 8.0 0.00 0.00 0.00 47 1006.6
20260509031004 12 121 4.8 9.7 0.00 0.00 0.00 47 1006.5
20260509030004 12 134 4.8 9.7 0.00 0.00 0.00 46 1006.6
20260509025003 12 117 4.8 16.1 0.00 0.00 0.00 45 1006.7
20260509024003 13 123 9.7 14.5 0.00 0.00 0.00 44 1006.8
20260509023003 13 100 6.4 9.7 0.00 0.00 0.00 45 1006.7
20260509022003 14 115 4.8 11.3 0.00 0.00 0.00 43 1006.6
20260509021003 15 102 4.8 8.0 0.00 0.00 0.00 40 1006.7
20260509020003 16 115 4.8 8.0 0.00 0.00 0.00 36 1006.7
20260509015004 17 13 1.6 9.7 0.00 0.00 0.00 34 1007.1
20260509014004 17 199 4.8 25.7 0.00 0.00 0.00 32 1007.3
20260509012003 17 303 6.4 16.1 0.00 0.00 0.00 32 1007.1
20260509005004 17 296 3.2 9.7 0.00 0.00 0.00 33 1007.2
20260509004003 17 171 4.8 9.7 0.00 0.00 0.00 32 1007.1
20260509003003 17 171 4.8 16.1 0.00 0.00 0.00 30 1006.8
20260509002003 17 210 1.6 8.0 0.00 0.00 0.00 32 1007.0
20260509001003 17 151 4.8 9.7 0.00 0.00 0.00 31 1007.1
20260509000003 18 157 3.2 8.0 0.00 0.00 0.00 30 1007.1
20260508235003 18 155 4.8 9.7 0.00 0.00 0.00 29 1007.3
20260508234003 18 195 6.4 14.5 0.00 0.00 0.00 27 1007.3
20260508233003 18 217 1.6 9.7 0.00 0.00 0.00 29 1007.3
20260508232003 18 189 4.8 12.9 0.00 0.00 0.00 28 1007.4
20260508231003 18 204 6.4 14.5 0.00 0.00 0.00 27 1007.2
20260508225003 18 211 4.8 25.7 0.00 0.00 0.00 27 1007.5
20260508224004 19 197 8.0 19.3 0.00 0.00 0.00 26 1007.9
20260508223003 19 283 8.0 16.1 0.00 0.00 0.00 27 1008.1
20260508222004 18 234 9.7 20.9 0.00 0.00 0.00 27 1008.0
20260508220003 18 295 4.8 25.7 0.00 0.00 0.00 29 1008.4
20260508215003 18 322 8.0 20.9 0.00 0.00 0.00 29 1008.5
20260508213003 18 270 19.3 27.4 0.00 0.00 0.00 27 1008.4
20260508212003 18 284 9.7 22.5 0.00 0.00 0.00 27 1008.7
20260508211003 18 198 8.0 27.4 0.00 0.00 0.00 27 1008.7
20260508210003 18 218 6.4 16.1 0.00 0.00 0.00 27 1008.6
20260508205003 18 233 9.7 19.3 0.00 0.00 0.00 27 1008.9
20260508204003 18 281 12.9 29.0 0.00 0.00 0.00 26 1009.4
20260508203003 18 288 14.5 29.0 0.00 0.00 0.00 27 1009.4
20260508202003 18 235 12.9 25.7 0.00 0.00 0.00 27 1009.5
20260508200003 18 242 12.9 25.7 0.00 0.00 0.00 27 1009.8
20260508194003 18 232 11.3 22.5 0.00 0.00 0.00 28 1010.2
20260508193003 17 246 8.0 25.7 0.00 0.00 0.00 28 1010.2
20260508192003 18 270 14.5 29.0 0.00 0.00 0.00 28 1010.5
20260508191004 18 268 16.1 35.4 0.00 0.00 0.00 28 1010.6
20260508190003 18 295 17.7 29.0 0.00 0.00 0.00 27 1010.5
20260508185004 17 256 11.3 32.2 0.00 0.00 0.00 28 1010.8
20260508183003 17 169 8.0 19.3 0.00 0.00 0.00 30 1011.2
20260508182003 17 231 8.0 22.5 0.00 0.00 0.00 30 1011.5
20260508181003 17 227 11.3 25.7 0.00 0.00 0.00 30 1011.4
20260508180003 17 210 9.7 22.5 0.00 0.00 0.00 31 1011.5
20260508175003 17 272 11.3 22.5 0.00 0.00 0.00 31 1011.8
20260508174003 17 209 12.9 20.9 0.00 0.00 0.00 30 1012.1
20260508173003 16 203 11.3 25.7 0.00 0.00 0.00 30 1012.2
20260508172004 17 270 11.3 24.1 0.00 0.00 0.00 31 1012.4
20260508171003 16 290 16.1 27.4 0.00 0.00 0.00 31 1012.7
20260508170003 16 202 11.3 32.2 0.00 0.00 0.00 35 1012.7
20260508165004 16 234 9.7 27.4 0.00 0.00 0.00 34 1012.9
20260508163004 16 203 14.5 29.0 0.00 0.00 0.00 37 1013.4
20260508162004 16 197 17.7 25.7 0.00 0.00 0.00 37 1013.5
20260508161003 16 213 12.9 25.7 0.00 0.00 0.00 36 1013.4
20260508160004 16 225 11.3 22.5 0.00 0.00 0.00 36 1013.5
20260508154003 15 258 8.0 29.0 0.00 0.00 0.00 36 1013.8
20260508153004 15 240 14.5 25.7 0.00 0.00 0.00 37 1014.0
20260508152004 14 230 4.8 22.5 0.00 0.00 0.00 41 1014.0
20260508151003 13 220 11.3 25.7 0.00 0.00 0.00 41 1014.3
20260508150004 14 210 9.7 25.7 0.00 0.00 0.00 42 1014.2
20260508145003 13 209 14.5 25.7 0.00 0.00 0.00 44 1014.2
20260508143004 13 194 9.7 19.3 0.00 0.00 0.00 51 1014.4
20260508142003 12 187 9.7 22.5 0.00 0.00 0.00 54 1014.7
20260508141003 12 181 4.8 22.5 0.00 0.00 0.00 57 1014.6
20260508140003 11 201 12.9 22.5 0.00 0.00 0.00 59 1014.7
20260508135003 11 196 11.3 22.5 0.00 0.00 0.00 61 1014.8
20260508133004 10 208 11.3 22.5 0.00 0.00 0.00 63 1014.8
20260508132004 10 203 9.7 22.5 0.00 0.00 0.00 64 1014.8
20260508130004 8 216 9.7 24.1 0.00 0.00 0.00 71 1014.8
20260508124003 7 174 8.0 19.3 0.00 0.00 0.00 74 1014.7